Location: Austin
(30.3000°N, 97.7500°W)
Time: 22:44:20
(UTC-05:00)

Helios 1A Rocket - Pass Details

Date: 08 April 2026
Orbit: 411 x 420 km, 98.3° (Epoch: 20 April)

Event Time Altitude Azimuth Distance (km) Brightness Sun altitude
Rises 20:33:43 0° 28° (NNE) 2,380 5.9 -9.2°
Reaches altitude 10° 20:35:59 10° 42° (NE) 1,509 4.8 -9.6°
Maximum altitude 20:38:39 24° 98° (E) 927 3.4 -10.2°
Drops below altitude 10° 20:41:18 10° 154° (SSE) 1,496 4.7 -10.7°
Sets 20:43:31 0° 169° (S) 2,352 5.8 -11.2°
